Regional Weather Roundup
Issued by NWS Charleston, SC

Current Version | Previous Version | Text Only | Print | Product List | Glossary Off
Versions: 1 2 3 4 5 6 7 8 9 10 11 12 13 14 15 16 17 18 19 20 21 22 23 24 25 26 27 28 29 30 31 32 33 34 35 36 37 38 39 40 41 42 43 44 45 46 47 48 49 50

616
ASUS42 KCHS 220112
RWRCHS

REGIONAL WEATHER ROUNDUP
NATIONAL WEATHER SERVICE CHARLESTON SC
900 PM EDT SAT OCT 21 2017

NOTE: "FAIR" INDICATES FEW OR NO CLOUDS BELOW 12,000 FEET WITH NO
SIGNIFICANT WEATHER AND/OR OBSTRUCTIONS TO VISIBILITY.

NOT ALL STATIONS ARE QUALITY CONTROLLED. USE DATA WITH CAUTION...
ESPECIALLY DEWPOINT OBSERVATIONS.

SCZ027-030-031-034>040-042>050-220200-
...SOUTHEAST SOUTH CAROLINA...

CITY           SKY/WX    TMP DP  RH WIND       PRES   REMARKS
N CHARLESTON   PTCLDY    68  65  90 NE7       30.28S
WATERFRONT PRK NOT AVBL
JOHNS ISLAND   FAIR      72  66  83 NE9       30.28S
PINOPOLIS        N/A     70  66  88 E5        30.21R
MONCKS CORNER  FAIR      66  63  88 CALM      30.29S
SUMMERVILLE    FAIR      68  63  83 CALM      30.30S
BEAUFORT MCAS  PTCLDY    72  67  84 MISG      30.27S
BEAUFORT ARPT  FAIR      70  64  83 NE8       30.27R
HILTON HEAD IS PTCLDY    72  68  88 NE8       30.27R
WALTERBORO     PTCLDY    64  63  94 E5        30.29S
ALLENDALE        N/A     68  61  77 CALM        N/A

...SOUTHERN MIDLANDS AND PEE DEE...

CITY           SKY/WX    TMP DP  RH WIND       PRES   REMARKS
GEORGETOWN     FAIR      64  63  94 CALM      30.31S
KINGSTREE      FAIR      63  61  94 CALM      30.30S
ORANGEBURG     MOCLDY    65  56  72 CALM      30.29S
BARNWELL         N/A     70  57  64 CALM      30.29S
AIKEN          FAIR      59  50  72 E5        30.33S
MANNING        FAIR      64  61  88 MISG      30.30S
COLUMBIA       CLOUDY    64  59  83 CALM      30.29S
SUMTER         PTCLDY    62  54  76 CALM      30.28S
FLORENCE       CLOUDY    62  57  83 CALM      30.31R
MYRTLE BEACH   PTCLDY    72  64  76 E7        30.32S
N MYRTLE BEACH CLOUDY    72  64  76 E7        30.31S

$$

GAZ063-065-086>088-099>101-113>116-118-119-134>141-150-220200-
...SOUTHEAST GEORGIA...

CITY           SKY/WX    TMP DP  RH WIND       PRES   REMARKS
SAVANNAH ARPT  PTCLDY    70  66  87 E6        30.26R
HUNTER AAF     MOCLDY    71  67  84 NE5       30.23R
FORT STEWART   PTCLDY    69  64  84 NE6       30.23S
STATESBORO     MOCLDY    70  60  71 E3        30.27S
SYLVANIA       MOCLDY    69  65  87 CALM      30.28S
CLAXTON        FAIR      68  66  92 CALM      30.26S

...CSRA...CENTRAL AND FAR SOUTHEAST GEORGIA...

CITY           SKY/WX    TMP DP  RH WIND       PRES   REMARKS
THOMSON        CLOUDY    60  55  86 CALM      30.33S
AUGUSTA-BUSH   PTCLDY    62  57  83 CALM      30.28R
AUGUSTA-DANIEL CLOUDY    72  49  44 E6        30.29R
SWAINSBORO     FAIR      70  61  73 MISG      30.28R
VIDALIA        PTCLDY    70  64  83 CALM      30.26R
EASTMAN        FAIR      72  51  46 E5        30.27R
HAZLEHURST     FAIR      74  59  59 E5        30.24R
ALMA           MOCLDY    71  65  81 E3        30.24R
WAYCROSS       PTCLDY    72  67  85 E7        30.24R
JESUP          NOT AVBL
BAXLEY         FAIR      68  68 100 E5        30.24S
BRUNSWICK      PTCLDY    72  68  88 NE5       30.24R
SAINT SIMONS   CLOUDY    74  70  87 NE6       30.22R

$$

SCZ027-028-034-036>038-045-046-048>050-GAZ119-141-220200-
...LAKE AND SUPPLEMENTAL COASTAL OBSERVATIONS...

STATION/POSITION TIME  TEMP    WIND        PRES    WAVE   SWELL
                       AIR SEA DIR/SP/G            HT/PER HT/PER/DIR
                 (UTC) (F)     (DEG/KT/KT) (MB)    (FT/S) (FT/S/D)
WINYAH BAY       NOT AVBL
LAKE MURRAY      0020   70        CALM     1025.4R
ACE BASIN NERRS  2345   71      40/  2     1025.0
FORT PULASKI     0048   74 73   70/ 12/ 16 1024.8R
SAPELO ISLAND    NOT AVBL

$$

ANZ835-935-AMZ111-154-330-350-352-354-370-450-454-472-220200-
...C-MAN AND BUOY OBSERVATIONS...

STATION/POSITION TIME  TEMP    WIND        PRES    WAVE   SWELL
                       AIR SEA DIR/SP/G            HT/PER HT/PER/DIR
                 (UTC) (F)     (DEG/KT/KT) (MB)    (FT/S) (FT/S/D)
BUOY 41004       0050   78 81   90/ 12/ 16 1024.3S   4/ 9   3/100/ 9
BUOY 41008       0050   78 77  100/ 14/ 16 1023.1R   4/ 5   2/100/ 8
FOLLY BEACH CMAN 0000   73      50/ 12/ 14 1025.7R
CAPERS NEARSHORE 0008   71 73   70/ 12/ 17 1024.8R
FRIPP NEARSHORE  0008   74      60/ 16/ 19   N/A


STATION/POSITION TIME  TEMP    WIND        PRES    WAVE   SWELL
                       AIR SEA DIR/SP/G            HT/PER HT/PER/DIR
                 (UTC) (F)     (DEG/KT/KT) (MB)    (FT/S) (FT/S/D)
5E ST. MARYS GA  0030      77                N/A     4/ 5
FRYING PAN BUOY  0050   75 76   50/ 14/ 16 1025.7S   3/ 8   3/100/ 8
BUOY 41025       0050   73 81  350/  8/ 10 1027.1R   3/ 8   3/120/ 8
CAPE LOOKOUT NC  0000   73      60/  9/ 11 1026.8R
BUOY 41002       2350   77 80   80/ 10/ 12 1025.2    4/ 9   3/ 90/ 9
BUOY 41010       NOT AVBL
ST AUGUSTINE FL  0100   79 78   90/ 16/ 20 1022.3R


$$




USA.gov is the U.S. government's official web portal to all federal, state and local government web resources and services.